Regional Weather Roundup
Issued by NWS

Home | Current Version | Previous Version | Text Only | Print | Product List | Glossary On
Versions: 1 2 3 4 5 6 7 8 9 10 11 12 13 14 15 16 17 18 19 20 21 22 23 24 25 26 27 28 29 30 31 32 33 34 35 36 37 38 39 40 41 42 43 44 45 46 47 48 49 50
000
ASUS45 KBOI 291510
RWRID
WEATHER ROUNDUP FOR IDAHO
NATIONAL WEATHER SERVICE BOISE ID
800 AM MST MON DEC 29 2014

NOTE: "FAIR" INDICATES FEW OR NO CLOUDS BELOW 12000 FEET
WITH NO SIGNIFICANT WEATHER AND/OR OBSTRUCTIONS TO VISIBILITY

IDZ012-014-291600-
SOUTHWEST IDAHO


CITY           SKY/WX    TMP DP  RH WIND       PRES   REMARKS
BOISE          FLURRIES  25  21  85 SE6       30.13R WCI  18
CALDWELL       CLOUDY    25  18  74 CALM      30.16S
MOUNTAIN HOME  CLOUDY    25  22  90 E12       30.12F WCI  14
$$

IDZ016-017-291600-
SOUTHCENTRAL IDAHO


CITY           SKY/WX    TMP DP  RH WIND       PRES   REMARKS
BURLEY         CLOUDY    22  18  85 E8        30.07R WCI  12
JEROME         CLOUDY    21  19  92 E6        30.08R WCI  13
TWIN FALLS     LGT SNOW  25  21  85 SW6       30.07S FOG     WCI  18
$$

IDZ019>023-291600-
SOUTHEAST IDAHO


CITY           SKY/WX    TMP DP  RH WIND       PRES   REMARKS
IDAHO FALLS    CLOUDY    13   6  74 N13       30.09R WCI  -2
POCATELLO      CLOUDY    19  16  88 NE13      30.08R WCI   6
REXBURG        CLOUDY     6   2  83 E10       30.08S WCI  -9
$$

IDZ006-010-011-018-031-032-291600-
CENTRAL IDAHO MOUNTAINS


CITY           SKY/WX    TMP DP  RH WIND       PRES   REMARKS
MCCALL         LGT SNOW  16  13  88 CALM      29.99R FOG
HAILEY         CLOUDY    10   5  79 W7        30.06R WCI   0
STANLEY          N/A     -2  -9  72 CALM      30.00S
SALMON         MOCLDY    18   3  53 E13       30.20R WCI   4
CHALLIS        FLURRIES  12   9  87 CALM      30.08R
$$

IDZ002-004-006-007-026-291600-
NORTHERN IDAHO


CITY           SKY/WX    TMP DP  RH WIND       PRES   REMARKS
LEWISTON       CLOUDY    30  20  66 NE14      30.24R WCI  19
LOWELL           N/A     27  17  66 N10G16    30.29R WCI  17
COEUR D`ALENE  PTCLDY    18  10  73 N21       30.35R WCI   1
MULLAN PASS    CLOUDY     4  -1  80 VRB3      30.09S HAZE
$$


USA.gov is the U.S. government's official web portal to all federal, state and local government web resources and services.